sat.trackr.live / text

‹ back to catalog

STARLINK-31404

NORAD 59521 · 2024-073L

PAYLOAD ACTIVE UNKNOWN

§ Identity

Operator
Country
US
Launch date
2024-04-17
Launch site
AFETR
Launch vehicle
Mass (kg)
RCS (m²)

Purposes: comms

External: N2YO · Heavens-Above · Gunter

§ Orbital elements

Epoch: 2026-09-21T03:24:41.273568Z

Period
94.27 min
Inclination
43.0042°
Eccentricity
0.0001342
Mean motion
15.27576865 rev/d
Perigee alt
482.1 km
Apogee alt
484.0 km
Semi-major
6,861.2 km
B*
5.0332e-5
RAAN
294.5387°
Arg perigee
275.5449°
Mean anomaly
84.5249°
Rev number
13,606

§ Raw data

STARLINK-314041 59521U 24073L   26264.14214437  .00001123  00000+0  50332-4 0  99972 59521  43.0042 294.5387 0001342 275.5449  84.5249 15.27576865136061

JSON: /api/v1/satellites/59521 · /tle

For live sub-satellite position, see the globe view (requires WebGL).

§ Visibility from observer

Set your observer location to see the next 7 days of passes ≥ 10°. The values pass through the URL so the page stays shareable.

No JS? Fill the form by hand. The geolocation button needs JavaScript.